Weather History for KN60 - April, 2013

Change the Weather History Date:

Monday, April 22, 2013

  Actual Average Record
Temperature  
Mean Temperature 27 °F -  
Max Temperature 32 °F 57 °F 73 °F (1998)
Min Temperature 22 °F 31 °F 19 °F (2015)
Degree Days  
Heating Degree Days 38    
Month to date heating degree days 809  
Moisture  
Dew Point 18 °F    
Average Humidity 67    
Maximum Humidity 81    
Minimum Humidity 53    
Precipitation  
Precipitation 0.00 in - - ()
Month to date precipitation 1.76  
Year to date precipitation 3.83  
Sea Level Pressure  
Sea Level Pressure 30.42 in    
Wind  
Wind Speed 16 mph (NNW)    
Max Wind Speed 23 mph    
Max Gust Speed 26 mph    
Averages and records for this station are not official NWS values.
T = Trace of Precipitation, MM = Missing Value Source: NWS Daily Summary

Daily Weather History Graph

Daily Weather History Graph

Search for Another Location

Airport or City:

Trip Planner

Search our weather history database for the weather conditions in past years. The results will help you decide how hot, cold, wet, or windy it might be!

Date:

Astronomy

Apr. 22, 2013 Rise Set
Actual Time 6:43 AM CDT 8:45 PM CDT
Civil Twilight 6:10 AM CDT 9:19 PM CDT
Nautical Twilight 5:29 AM CDT 10:00 PM CDT
Astronomical Twilight 4:43 AM CDT 10:46 PM CDT
Moon 5:24 PM CDT (4/22) 4:53 AM CDT (4/22)
Length of Visible Light 15h 08m
Length of Day
14h 02m
Waxing Gibbous, 88% of the Moon is Illuminated
Apr 22
Waxing Gibbous
Apr 25
Full
May 2
Last Quarter
May 9
New
May 17
First Quarter

Hourly Weather History & Observations

Time (CDT) Temp. Windchill Dew Point Humidity Pressure Visibility Wind Dir Wind Speed Gust Speed Precip Events Conditions
12:52 AM 28.0 °F 17.5 °F 21.0 °F 75% 30.31 in - NNW 12.7 mph - N/A   Unknown
1:52 AM 27.0 °F 14.7 °F 21.0 °F 78% 30.33 in - NNW 16.1 mph - N/A   Unknown
2:52 AM 26.1 °F 13.1 °F 19.9 °F 78% 30.33 in - NNW 17.3 mph - N/A   Unknown
3:52 AM 26.1 °F 12.7 °F 19.9 °F 78% 30.34 in - NNW 18.4 mph - N/A   Unknown
4:52 AM 26.1 °F 13.1 °F 19.9 °F 78% 30.35 in - NNW 17.3 mph - N/A   Unknown
5:52 AM 25.0 °F 13.1 °F 18.0 °F 75% 30.37 in - NNW 13.8 mph - N/A   Unknown
6:52 AM 25.0 °F 14.2 °F 18.0 °F 75% 30.38 in - North 11.5 mph - N/A   Unknown
7:52 AM 24.1 °F 12.0 °F 18.0 °F 77% 30.41 in - NW 13.8 mph - N/A   Unknown
8:52 AM 21.9 °F 10.4 °F 16.0 °F 78% 30.45 in - NW 11.5 mph - N/A   Unknown
9:52 AM 26.1 °F 14.5 °F 18.0 °F 71% 30.44 in - North 13.8 mph - N/A   Unknown
10:52 AM 27.0 °F 14.7 °F 19.0 °F 72% 30.45 in - NNW 16.1 mph - N/A   Unknown
12:52 PM 30.0 °F 19.1 °F 19.0 °F 64% 30.46 in - North 15.0 mph - N/A   Unknown
1:52 PM 30.0 °F 17.5 °F 17.1 °F 59% 30.47 in - North 19.6 mph 23.0 mph N/A   Unknown
2:52 PM 30.0 °F 18.3 °F 17.1 °F 59% 30.47 in - North 17.3 mph 23.0 mph N/A   Unknown
3:52 PM 30.0 °F 17.2 °F 17.1 °F 59% 30.48 in - NNW 20.7 mph - N/A   Unknown
4:52 PM 30.9 °F 19.1 °F 16.0 °F 54% 30.47 in - NNW 18.4 mph 21.9 mph N/A   Unknown
5:52 PM 32.0 °F 22.1 °F 17.1 °F 54% 30.45 in - North 13.8 mph - N/A   Unknown
6:52 PM 30.0 °F 19.1 °F 16.0 °F 56% 30.45 in - North 15.0 mph 19.6 mph N/A   Unknown
7:52 PM 30.0 °F 20.5 °F 18.0 °F 61% 30.45 in - NNW 11.5 mph - N/A   Unknown
8:52 PM 27.0 °F 19.5 °F 19.0 °F 72% 30.45 in - NNW 6.9 mph - N/A   Unknown
9:52 PM 25.0 °F 18.1 °F 19.0 °F 78% 30.45 in - WNW 5.8 mph - N/A   Unknown
10:52 PM 24.1 °F 18.2 °F 18.0 °F 77% 30.46 in - West 4.6 mph - N/A   Unknown
11:52 PM 23.0 °F 17.0 °F 18.0 °F 81% 30.45 in - West 4.6 mph - N/A   Unknown